Location: Betpouey
(42.8833°N, 0.0333°E)
Time: 06:54:41
(UTC+00:00)

CZ-4B R/B - Pass Details

Date: 01 December 2020
Orbit: 809 x 881 km, 99.1° (Epoch: 17 January)

Event Time Altitude Azimuth Distance (km) Brightness Sun altitude
Rises 17:41:53 0° 174° (S) 3,340 6.5 -13.5°
Reaches altitude 10° 17:44:16 10° 178° (S) 2,404 5.8 -13.9°
Maximum altitude 17:49:30 60° 258° (WSW) 929 3.7 -14.8°
Drops below altitude 10° 17:54:44 10° 338° (NNW) 2,403 5.6 -15.7°
Sets 17:57:07 0° 343° (NNW) 3,339 6.3 -16.1°
